timestamp,wind_dir_avg,wind_spd_avg,wind_spd_max_dir,wind_spd_gust,battery_voltage,lat,long
2023-11-05 00:04:01+00:00,248.0,9.88,242.0,11.52,12.41,47.59359,-54.27349
2023-11-05 00:14:01+00:00,248.0,10.22,247.0,11.43,12.41,47.59359,-54.27349
2023-11-05 00:24:01+00:00,246.0,10.37,244.0,11.83,12.41,47.59359,-54.27349
2023-11-05 00:34:01+00:00,247.0,9.24,249.0,11.16,12.41,47.59359,-54.27349
2023-11-05 00:44:01+00:00,247.0,9.41,253.0,10.33,12.41,47.59359,-54.27349
2023-11-05 00:54:01+00:00,243.0,9.51,240.0,10.5,12.41,47.59359,-54.27349
2023-11-05 01:04:01+00:00,244.0,7.75,251.0,9.99,12.41,47.59359,-54.27349
2023-11-05 01:14:01+00:00,248.0,8.09,252.0,9.14,12.41,47.59359,-54.27349
2023-11-05 01:24:01+00:00,248.0,8.47,250.0,9.96,12.41,47.59359,-54.27349
2023-11-05 01:34:01+00:00,253.0,8.75,251.0,10.2,12.41,47.59359,-54.27349
2023-11-05 01:44:01+00:00,258.0,8.12,262.0,9.38,12.41,47.59359,-54.27349
2023-11-05 01:54:01+00:00,258.0,8.16,252.0,9.72,12.41,47.59359,-54.27349
2023-11-05 02:04:01+00:00,267.0,8.26,266.0,9.27,12.41,47.59359,-54.27349
2023-11-05 02:14:01+00:00,258.0,8.01,261.0,9.63,12.41,47.59359,-54.27349
2023-11-05 02:24:01+00:00,247.0,7.78,247.0,8.82,12.41,47.59359,-54.27349
2023-11-05 02:34:01+00:00,240.0,6.23,241.0,7.13,12.41,47.59359,-54.27349
2023-11-05 02:44:01+00:00,235.0,5.5,239.0,6.29,12.41,47.59359,-54.27349
2023-11-05 02:54:01+00:00,237.0,5.97,234.0,6.64,12.41,47.59359,-54.27349
2023-11-05 03:04:01+00:00,242.0,6.16,236.0,7.07,12.41,47.59359,-54.27349
2023-11-05 03:14:01+00:00,242.0,6.07,247.0,7.5,12.41,47.59359,-54.27349
2023-11-05 03:24:01+00:00,227.0,5.94,221.0,6.89,12.41,47.59359,-54.27349
2023-11-05 03:34:01+00:00,236.0,6.67,229.0,7.83,12.41,47.59359,-54.27349
2023-11-05 03:44:01+00:00,233.0,6.55,236.0,7.46,12.41,47.59359,-54.27349
2023-11-05 03:54:01+00:00,229.0,6.31,229.0,7.6,12.41,47.59359,-54.27349
2023-11-05 04:04:01+00:00,225.0,6.72,221.0,8.12,12.41,47.59359,-54.27349
2023-11-05 04:14:00+00:00,227.0,6.38,218.0,7.43,12.33,47.59359,-54.27349
2023-11-05 04:24:00+00:00,229.0,6.44,233.0,7.87,12.33,47.59359,-54.27349
2023-11-05 04:34:00+00:00,232.0,6.79,230.0,7.72,12.33,47.59359,-54.27349
2023-11-05 04:44:00+00:00,225.0,5.79,220.0,6.7,12.33,47.59359,-54.27349
2023-11-05 04:54:00+00:00,229.0,5.95,230.0,6.91,12.33,47.59359,-54.27349
2023-11-05 05:04:00+00:00,231.0,6.21,233.0,7.22,12.33,47.59359,-54.27349
2023-11-05 05:14:00+00:00,239.0,6.08,245.0,7.34,12.33,47.59359,-54.27349
2023-11-05 05:24:00+00:00,243.0,6.33,248.0,7.3,12.33,47.59359,-54.27349
2023-11-05 05:34:00+00:00,241.0,5.61,237.0,6.12,12.33,47.59359,-54.27349
2023-11-05 05:44:00+00:00,242.0,4.95,242.0,5.56,12.33,47.59359,-54.27349
2023-11-05 05:54:00+00:00,239.0,5.72,247.0,6.36,12.33,47.59359,-54.27349
2023-11-05 06:04:00+00:00,239.0,5.33,236.0,6.04,12.33,47.59359,-54.27349
2023-11-05 06:14:00+00:00,248.0,4.64,246.0,4.98,12.33,47.59359,-54.27349
2023-11-05 06:24:00+00:00,252.0,4.18,247.0,4.77,12.33,47.59359,-54.27349
2023-11-05 06:34:00+00:00,252.0,3.79,249.0,4.13,12.33,47.59359,-54.27349
2023-11-05 06:44:00+00:00,263.0,2.97,260.0,3.5,12.33,47.59359,-54.27349
2023-11-05 06:54:00+00:00,245.0,3.39,236.0,3.83,12.33,47.59359,-54.27349
2023-11-05 07:04:00+00:00,233.0,4.34,234.0,4.74,12.33,47.59359,-54.27349
2023-11-05 07:14:01+00:00,235.0,4.35,233.0,4.9,12.33,47.59359,-54.27349
2023-11-05 07:24:01+00:00,243.0,3.49,258.0,4.13,12.33,47.59359,-54.27349
2023-11-05 07:34:01+00:00,239.0,3.6,235.0,4.04,12.33,47.59359,-54.27349
2023-11-05 07:44:01+00:00,228.0,3.63,226.0,4.05,12.33,47.59359,-54.27349
2023-11-05 07:54:01+00:00,230.0,3.11,231.0,3.55,12.33,47.59359,-54.27349
2023-11-05 08:04:01+00:00,251.0,3.14,248.0,3.51,12.33,47.59359,-54.27349
2023-11-05 08:14:00+00:00,229.0,3.17,224.0,3.55,12.25,47.59359,-54.27349
2023-11-05 08:24:00+00:00,234.0,2.45,228.0,3.01,12.25,47.59359,-54.27349
2023-11-05 08:34:00+00:00,234.0,1.94,233.0,2.3,12.25,47.59359,-54.27349
2023-11-05 08:44:00+00:00,230.0,2.16,226.0,2.48,12.25,47.59359,-54.27349
2023-11-05 08:54:00+00:00,233.0,2.67,235.0,3.13,12.25,47.59359,-54.27349
2023-11-05 09:04:00+00:00,236.0,2.92,233.0,3.34,12.25,47.59359,-54.27349
2023-11-05 09:14:00+00:00,251.0,3.39,252.0,3.65,12.25,47.59359,-54.27349
2023-11-05 09:24:00+00:00,259.0,3.45,260.0,3.94,12.25,47.59359,-54.27349
2023-11-05 09:34:00+00:00,257.0,3.53,256.0,3.91,12.25,47.59359,-54.27349
2023-11-05 09:44:00+00:00,265.0,2.8,266.0,3.02,12.25,47.59359,-54.27349
2023-11-05 09:54:00+00:00,255.0,2.47,260.0,2.74,12.25,47.59359,-54.27349
2023-11-05 10:04:00+00:00,253.0,2.49,259.0,2.8,12.25,47.59359,-54.27349
2023-11-05 10:14:00+00:00,302.0,2.36,303.0,2.61,12.25,47.59359,-54.27349
2023-11-05 10:24:00+00:00,308.0,2.35,307.0,2.63,12.25,47.59359,-54.27349
2023-11-05 10:34:00+00:00,309.0,2.42,309.0,2.64,12.25,47.59359,-54.27349
2023-11-05 10:44:00+00:00,297.0,1.56,296.0,1.8,12.25,47.59359,-54.27349
2023-11-05 10:54:00+00:00,289.0,1.16,285.0,1.5,12.25,47.59359,-54.27349
2023-11-05 11:04:00+00:00,270.0,1.15,273.0,1.35,12.25,47.59359,-54.27349
2023-11-05 11:14:00+00:00,328.0,0.77,318.0,1.15,12.17,47.59359,-54.27349
2023-11-05 11:24:00+00:00,350.0,0.57,342.0,0.79,12.17,47.59359,-54.27349
2023-11-05 11:34:00+00:00,92.0,0.52,88.0,0.66,12.17,47.59359,-54.27349
2023-11-05 11:44:00+00:00,79.0,0.54,82.0,0.76,12.17,47.59359,-54.27349
2023-11-05 11:54:00+00:00,101.0,0.46,81.0,0.68,12.17,47.59359,-54.27349
2023-11-05 12:04:00+00:00,111.0,0.63,105.0,0.74,12.17,47.59359,-54.27349
2023-11-05 12:14:01+00:00,88.0,0.82,90.0,1.04,12.17,47.59359,-54.27349
2023-11-05 12:24:01+00:00,110.0,0.72,111.0,0.93,12.17,47.59359,-54.27349
2023-11-05 12:34:01+00:00,125.0,0.91,122.0,1.2,12.17,47.59359,-54.27349
2023-11-05 12:44:01+00:00,127.0,0.6,132.0,0.79,12.17,47.59359,-54.27349
2023-11-05 12:54:01+00:00,158.0,1.53,156.0,1.69,12.17,47.59359,-54.27349
2023-11-05 13:04:01+00:00,153.0,1.3,143.0,1.45,12.17,47.59359,-54.27349
2023-11-05 13:14:00+00:00,151.0,1.63,150.0,1.74,12.25,47.59359,-54.27349
2023-11-05 13:24:00+00:00,116.0,1.92,118.0,2.4,12.25,47.59359,-54.27349
2023-11-05 13:34:00+00:00,131.0,1.77,133.0,2.0,12.25,47.59359,-54.27349
2023-11-05 13:44:00+00:00,142.0,1.6,143.0,1.91,12.25,47.59359,-54.27349
2023-11-05 13:54:00+00:00,138.0,1.24,136.0,1.47,12.25,47.59359,-54.27349
2023-11-05 14:04:00+00:00,158.0,0.88,162.0,1.07,12.25,47.59359,-54.27349
2023-11-05 14:14:00+00:00,49.0,0.32,48.0,0.52,12.65,47.59359,-54.27349
2023-11-05 14:24:00+00:00,160.0,0.18,172.0,0.28,12.65,47.59359,-54.27349
2023-11-05 14:34:00+00:00,215.0,0.41,219.0,0.62,12.65,47.59359,-54.27349
2023-11-05 14:44:00+00:00,171.0,0.39,166.0,0.5,12.65,47.59359,-54.27349
2023-11-05 14:54:00+00:00,139.0,0.69,138.0,0.79,12.65,47.59359,-54.27349
2023-11-05 15:04:00+00:00,54.0,1.15,57.0,1.61,12.65,47.59359,-54.27349
2023-11-05 15:14:00+00:00,60.0,0.93,59.0,1.14,12.89,47.59359,-54.27349
2023-11-05 15:24:00+00:00,85.0,1.06,88.0,1.37,12.89,47.59359,-54.27349
2023-11-05 15:34:00+00:00,155.0,0.47,156.0,0.86,12.89,47.59359,-54.27349
2023-11-05 15:44:00+00:00,116.0,1.15,103.0,1.51,12.89,47.59359,-54.27349
2023-11-05 15:54:00+00:00,151.0,1.76,153.0,1.95,12.89,47.59359,-54.27349
2023-11-05 16:04:00+00:00,143.0,1.26,143.0,1.47,12.89,47.59359,-54.27349
2023-11-05 16:14:00+00:00,128.0,1.28,135.0,1.54,13.05,47.59359,-54.27349
2023-11-05 16:24:00+00:00,122.0,1.86,127.0,2.07,13.05,47.59359,-54.27349
2023-11-05 16:34:00+00:00,131.0,1.49,134.0,1.93,13.05,47.59359,-54.27349
2023-11-05 16:44:00+00:00,141.0,2.58,140.0,3.09,13.05,47.59359,-54.27349
2023-11-05 16:54:00+00:00,144.0,2.76,145.0,3.1,13.05,47.59359,-54.27349
2023-11-05 17:04:00+00:00,155.0,2.57,155.0,2.71,13.05,47.59359,-54.27349
2023-11-05 17:14:01+00:00,155.0,2.84,155.0,3.05,12.89,47.59359,-54.27349
2023-11-05 17:24:01+00:00,149.0,3.39,151.0,3.59,12.89,47.59359,-54.27349
2023-11-05 17:34:01+00:00,146.0,2.54,146.0,2.72,12.89,47.59359,-54.27349
2023-11-05 17:44:01+00:00,146.0,3.06,146.0,3.26,12.89,47.59359,-54.27349
2023-11-05 17:54:01+00:00,138.0,2.44,142.0,2.87,12.89,47.59359,-54.27349
2023-11-05 18:04:01+00:00,153.0,2.2,155.0,2.41,12.89,47.59359,-54.27349
2023-11-05 18:14:01+00:00,164.0,2.8,164.0,3.06,12.81,47.59359,-54.27349
2023-11-05 18:24:01+00:00,164.0,3.69,165.0,4.05,12.81,47.59359,-54.27349
2023-11-05 18:34:01+00:00,165.0,3.79,165.0,4.16,12.81,47.59359,-54.27349
2023-11-05 18:44:01+00:00,175.0,3.96,177.0,4.3,12.81,47.59359,-54.27349
2023-11-05 18:54:01+00:00,183.0,3.71,184.0,4.04,12.81,47.59359,-54.27349
2023-11-05 19:04:01+00:00,203.0,3.78,205.0,4.33,12.81,47.59359,-54.27349
2023-11-05 19:14:00+00:00,203.0,5.89,204.0,6.33,12.65,47.59359,-54.27349
2023-11-05 19:24:00+00:00,207.0,5.32,205.0,5.75,12.65,47.59359,-54.27349
2023-11-05 19:34:00+00:00,207.0,4.62,207.0,5.11,12.65,47.59359,-54.27349
2023-11-05 19:44:00+00:00,223.0,4.08,221.0,4.5,12.65,47.59359,-54.27349
2023-11-05 19:54:00+00:00,225.0,4.59,222.0,5.33,12.65,47.59359,-54.27349
2023-11-05 20:04:00+00:00,229.0,4.43,230.0,4.92,12.65,47.59359,-54.27349
2023-11-05 20:14:00+00:00,230.0,4.95,228.0,5.52,12.49,47.59359,-54.27349
2023-11-05 20:24:00+00:00,233.0,3.8,232.0,4.25,12.49,47.59359,-54.27349
2023-11-05 20:34:00+00:00,223.0,4.66,221.0,5.03,12.49,47.59359,-54.27349
2023-11-05 20:44:00+00:00,224.0,4.16,222.0,4.66,12.49,47.59359,-54.27349
2023-11-05 20:54:00+00:00,214.0,4.93,215.0,5.37,12.49,47.59359,-54.27349
2023-11-05 21:04:00+00:00,215.0,3.95,217.0,4.43,12.49,47.59359,-54.27349
2023-11-05 21:14:00+00:00,237.0,2.63,231.0,3.02,12.41,47.59359,-54.27349
2023-11-05 21:24:00+00:00,203.0,2.45,209.0,2.67,12.41,47.59359,-54.27349
2023-11-05 21:34:00+00:00,193.0,3.65,192.0,3.91,12.41,47.59359,-54.27349
2023-11-05 21:44:00+00:00,202.0,3.99,204.0,4.17,12.41,47.59359,-54.27349
2023-11-05 21:54:00+00:00,200.0,3.62,198.0,4.05,12.41,47.59359,-54.27349
2023-11-05 22:04:00+00:00,197.0,4.74,197.0,4.92,12.41,47.59359,-54.27349
2023-11-05 22:14:00+00:00,197.0,4.4,197.0,4.68,12.33,47.59359,-54.27349
2023-11-05 22:24:00+00:00,200.0,4.61,199.0,4.83,12.33,47.59359,-54.27349
2023-11-05 22:34:00+00:00,217.0,3.66,218.0,4.11,12.33,47.59359,-54.27349
2023-11-05 22:44:00+00:00,209.0,4.24,207.0,4.57,12.33,47.59359,-54.27349
2023-11-05 22:54:00+00:00,216.0,4.35,216.0,4.88,12.33,47.59359,-54.27349
2023-11-05 23:04:00+00:00,216.0,4.29,216.0,4.51,12.33,47.59359,-54.27349
2023-11-05 23:14:01+00:00,221.0,4.05,225.0,4.4,12.33,47.59359,-54.27349
2023-11-05 23:24:01+00:00,228.0,4.23,226.0,4.74,12.33,47.59359,-54.27349
2023-11-05 23:34:01+00:00,244.0,4.06,240.0,5.1,12.33,47.59359,-54.27349
2023-11-05 23:44:01+00:00,248.0,4.65,249.0,5.04,12.33,47.59359,-54.27349
2023-11-05 23:54:01+00:00,249.0,3.92,249.0,4.21,12.33,47.59359,-54.27349
